Meteo Giornale » Osservazioni meteo Stati Uniti (USA) » Portland Intl Jetport

ore: 17:51 - Osservazioni Meteo Portland Intl Jetport
Lat. 43° 38' N Lon. 70° 18' W Alt. 22 metri s.l.m.

coperto

18 °C

Coperto

Temp. 24 Ore

12 °C

21 °C

Est

11.1 Km/h

Dew point 17 °C

Umidità 93 %

Visibilità  10 Km

Il sole sorge alle ore 06:05

Il sole tramonta alle ore 19:17

Data e Ora Cielo e Fenomeni T °C DP °C Um. % Pres. hPa Vis. km Vento km/h
Oggi h: 17:51 coperto Coperto 18 17 93 1019 10 E 11.1
Oggi h: 17:18 coperto Coperto 19 17 88 1018 10 E 13
Oggi h: 17:03 coperto Coperto 19 17 88 1018 10 E 13
Oggi h: 16:51 coperto Coperto 19 17 88 1018 10 E 11.1
Oggi h: 15:51 coperto Coperto 19 16 82 1018 10 E 13
Oggi h: 14:51 coperto Coperto 20 16 77 1018 10 E 16.7
Oggi h: 13:51 coperto Coperto 21 16 73 1018 10 E/SE 13
Oggi h: 12:51 molto_nuvoloso Molto Nuvoloso 21 15 68 1018 10 E 11.1
Oggi h: 11:51 coperto Coperto 20 13 64 1018 10 N 5.5
Oggi h: 10:51 nuvoloso Nuvoloso 18 12 67 1018 10 E/NE 11.1
Oggi h: 09:51 molto_nuvoloso Molto Nuvoloso 17 11 67 1018 10 N 5.5
Oggi h: 08:51 coperto Coperto 16 11 72 1019 10 N 9.3
Oggi h: 07:51 coperto_pioggia Pioggia 15 11 76 1018 10 NE 7.4
Oggi h: 06:51 poco_nuvoloso Poco Nuvoloso 14 12 87 1018 10 N 7.4
Oggi h: 05:51 sereno Sereno 13 12 93 1017 10 N 7.4
Oggi h: 04:51 sereno Sereno 13 12 93 1017 10 N 11.1
Oggi h: 03:51 sereno Sereno 12 11 93 1018 10 N 0
Oggi h: 02:51 sereno Sereno 13 12 93 1018 10 N 5.5
Oggi h: 01:51 sereno Sereno 13 12 93 1018 10 N/NO 9.3
Oggi h: 00:51 sereno Sereno 14 13 93 1018 10 N 0
Ieri h: 23:51 sereno Sereno 14 13 93 1018 10 N 0
Ieri h: 22:51 sereno Sereno 14 13 93 1018 10 N 0
Ieri h: 21:51 sereno Sereno 16 13 82 1018 10 N 0
Ieri h: 20:51 sereno Sereno 17 13 77 1018 10 N 0
Ieri h: 19:51 poco_nuvoloso Poco Nuvoloso 17 13 77 1018 10 S/SO 11.1
Ieri h: 18:51 poco_nuvoloso Poco Nuvoloso 18 13 72 1018 10 S/SO 7.4